Temperature
19 17 17 17 18 19 19 19 19 19 19 19 18 19 19 19 20 20 20 20 20 20 20 20 20 20 19 19 19 18 18 18 17 17 17 17 16 16 16 16 16 15 15 15
17 17 18 19 19 19 19 18 18 19 19 19 18 19 19 19 19 20 20 20 20 20 20 20 20 20 19 19 19 18 18 18 17 17 17 17 16 16 16 16 16 15 15 15
17 18 19 20 19 19 19 18 19 19 19 19 19 19 19 19 20 20 20 20 20 20 20 20 20 20 19 19 19 18 18 18 18 17 17 16 16 16 16 16 16 15 15 15
18 19 20 19 19 19 18 19 20 19 18 17 19 17 18 18 18 19 20 20 20 20 20 20 20 20 19 19 19 19 18 18 18 17 17 17 17 16 16 16 16 15 15 15
18 19 19 19 19 20 19 19 19 19 18 17 18 17 17 18 18 18 19 20 20 21 20 20 20 20 20 19 19 19 18 18 18 17 17 17 17 16 16 16 16 16 15 15
19 20 20 19 20 20 19 18 18 17 17 17 18 17 17 17 19 19 19 20 20 20 20 20 20 20 20 19 19 19 18 18 18 18 17 17 17 16 16 16 16 16 15 15
19 19 19 20 19 19 18 17 16 17 16 17 18 18 18 19 20 20 20 20 21 21 20 20 20 20 20 19 19 19 19 18 18 18 17 17 17 17 16 16 16 16 16 15
18 18 19 19 19 18 18 17 16 17 17 17 18 18 19 20 21 21 21 21 21 20 20 20 20 20 20 20 19 19 19 19 18 18 17 17 17 17 16 16 16 16 16 15
17 18 19 20 20 19 18 17 17 16 17 17 17 18 19 20 19 20 20 20 20 20 20 21 20 20 20 20 20 19 19 19 18 18 18 17 17 17 17 16 16 16 16 15
18 18 19 19 19 19 18 17 16 16 17 17 18 18 18 19 19 19 19 20 20 20 20 21 21 20 20 20 20 19 19 19 18 18 18 17 17 17 17 16 16 16 16 16
18 17 18 18 18 18 18 18 16 16 16 16 17 18 20 20 19 19 20 20 20 20 20 21 21 21 20 20 20 19 19 19 18 18 18 18 17 17 17 17 16 16 16 16
18 16 16 18 18 19 19 18 17 16 17 16 17 18 21 20 20 20 20 21 21 21 21 21 21 21 20 20 20 19 19 19 18 18 18 18 17 17 17 17 16 16 16 16
18 16 16 17 17 18 19 19 18 17 16 16 17 18 20 20 20 21 21 21 21 21 21 21 21 21 20 20 20 19 19 19 18 18 18 18 17 17 17 17 16 16 16 16
19 17 17 17 18 18 18 19 19 17 16 17 18 19 20 20 20 20 21 21 21 21 21 21 21 21 20 20 20 19 19 19 18 18 18 18 17 17 17 17 16 16 16 16
18 17 18 18 19 19 19 20 19 19 18 18 19 19 20 20 20 21 21 21 21 20 20 21 21 21 20 20 20 19 19 19 18 18 18 18 17 17 17 17 16 16 16 16
17 18 18 19 19 19 19 20 20 20 20 19 20 20 20 21 21 21 21 21 20 20 21 21 21 21 21 20 20 20 19 19 19 18 18 18 17 17 17 17 16 16 16 16
17 17 18 18 19 19 19 20 20 20 20 20 20 20 20 20 20 21 21 21 21 21 21 21 21 21 21 21 20 20 19 19 18 18 18 18 17 17 17 16 16 16 16 15
17 16 16 17 18 19 19 20 21 21 21 21 21 20 21 21 22 22 22 22 22 22 22 22 22 21 21 21 20 20 19 19 18 18 18 18 17 17 17 16 16 16 16 15
17 17 16 16 17 18 20 20 21 20 20 20 20 21 21 22 21 21 22 23 23 23 23 22 22 22 21 21 20 20 19 19 19 18 18 18 17 17 17 16 16 16 15 15
17 16 16 16 18 18 19 21 21 20 20 21 21 20 21 21 18 19 22 22 23 23 22 22 22 21 21 21 20 20 19 19 19 19 18 18 17 17 17 16 16 16 15 15
17 17 16 16 17 17 19 20 21 19 19 21 22 22 21 20 20 22 22 22 23 22 22 22 22 21 21 21 20 20 19 19 19 19 18 18 17 17 16 16 16 15 15 15
17 16 16 15 17 18 20 20 19 19 21 21 22 22 22 22 22 22 22 22 22 22 22 22 21 21 21 20 20 20 19 19 19 18 18 17 17 16 16 16 15 15 15 14
17 17 16 17 17 19 20 20 22 22 21 22 22 22 22 22 22 22 22 22 22 21 21 21 21 21 20 20 20 20 19 19 18 18 18 17 17 16 16 16 15 15 14 14
17 17 16 16 17 18 20 21 21 21 22 22 22 21 21 21 21 21 21 21 21 21 21 20 20 20 20 20 20 19 19 19 18 18 17 17 16 16 16 15 15 15 14 14
17 16 16 16 17 18 19 20 21 21 21 21 21 21 21 21 21 21 21 20 20 20 20 20 20 20 20 19 19 19 19 18 18 17 17 17 16 16 15 15 15 15 15 14
16 16 16 16 17 17 19 20 20 20 20 20 20 20 20 20 20 20 20 20 20 19 19 19 19 19 19 19 19 18 18 18 17 17 17 16 16 16 15 15 14 14 14 14
Wind_Speed
1 3 2 5 4 4 4 4 3 3 3 4 5 6 6 6 6 7 7 7 8 7 6 8 9 9 9 8 8 7 7 6 5 4 4 4 3 2 3 5 9 10 10 10
3 1 5 4 2 2 4 4 3 2 4 4 4 3 4 6 8 9 10 9 9 8 7 8 9 8 8 8 8 7 7 6 5 4 3 3 3 2 2 3 7 9 10 9
4 3 3 3 3 3 3 5 5 4 3 3 5 1 3 4 4 6 8 10 11 12 12 10 9 8 8 8 8 8 7 7 6 5 5 4 4 4 4 4 3 5 9 9
1 3 2 2 3 4 2 3 6 7 5 2 3 3 5 6 6 8 9 10 11 12 11 10 10 10 9 8 8 8 8 7 6 6 7 6 4 3 1 1 2 4 7 8
2 1 2 2 3 4 4 3 5 4 3 2 1 3 5 5 8 11 10 11 12 12 12 12 11 11 10 9 8 8 8 7 6 7 7 7 5 3 2 2 3 4 5 6
2 1 2 3 1 4 6 6 6 5 3 1 4 4 5 8 13 11 12 12 12 12 12 11 10 10 8 8 8 8 8 6 6 7 7 7 7 5 5 3 3 2 3 3
2 2 0 2 4 3 6 5 3 2 1 4 4 4 8 10 11 14 14 14 13 13 12 12 11 11 10 10 9 8 9 7 6 7 6 7 7 7 6 5 3 2 2 2
2 2 3 3 4 5 4 5 5 4 3 3 1 5 7 7 9 11 11 12 13 13 13 14 13 12 11 11 10 10 9 7 7 7 6 6 6 5 4 4 4 3 2 1
4 4 2 2 3 7 5 3 4 4 1 1 4 5 6 1 5 9 10 11 13 14 14 14 13 12 12 11 11 11 10 8 8 7 7 6 6 5 5 4 4 3 2 2
5 2 1 1 4 2 5 6 4 4 2 2 4 4 4 4 7 10 12 13 13 13 13 13 13 13 12 11 10 10 10 9 8 8 7 6 6 6 5 5 5 4 3 3
4 3 1 1 3 5 3 3 4 3 3 3 2 6 6 10 11 12 13 14 15 15 15 14 13 12 11 10 10 10 10 8 7 7 6 7 6 5 5 5 5 5 4 4
5 4 2 4 4 5 5 6 6 4 3 3 2 6 5 7 9 11 12 13 14 14 13 13 13 12 11 11 10 10 10 9 9 8 7 7 6 6 6 5 5 5 5 4
6 5 3 3 3 1 3 4 5 5 3 3 3 6 4 2 4 7 10 11 12 12 11 10 11 12 12 12 11 10 10 10 9 8 8 7 7 7 6 6 5 5 6 5
6 5 5 6 6 5 4 5 7 6 4 4 6 7 7 3 3 5 7 10 11 11 12 12 12 12 12 12 12 11 10 9 9 9 9 8 8 8 7 6 6 6 6 6
6 4 5 6 5 5 6 7 9 9 8 7 7 7 9 7 7 8 9 9 10 11 11 13 13 12 12 12 11 11 10 9 10 10 9 9 7 7 7 7 6 6 6 6
4 4 2 2 5 5 6 8 9 9 8 8 7 8 8 6 4 6 8 11 12 12 13 14 13 13 13 14 13 12 11 10 10 11 10 8 8 7 7 7 7 6 6 5
5 5 3 3 4 0 4 8 9 8 7 7 8 9 4 3 6 9 10 12 13 14 14 14 14 14 14 14 14 14 13 11 11 11 10 9 9 9 8 8 7 7 6 5
7 6 4 1 2 3 7 4 6 7 6 6 6 6 7 7 6 7 8 11 12 12 13 14 13 13 12 11 11 11 11 12 11 10 10 10 10 9 8 7 7 6 5 5
6 7 4 3 2 5 6 4 3 4 3 3 5 4 4 3 2 2 4 8 12 13 12 12 13 12 12 12 13 12 12 11 11 11 11 11 11 10 9 9 7 5 5 5
4 5 5 4 3 4 6 6 2 4 2 4 4 4 3 4 3 5 5 5 7 7 8 9 9 9 11 11 13 13 13 12 13 13 12 11 11 11 11 10 7 5 5 5
3 2 4 4 4 6 7 5 3 4 5 4 3 4 5 5 6 5 4 4 5 6 7 8 9 10 11 12 13 14 13 14 13 11 10 10 10 10 10 8 6 6 6 6
8 5 5 5 4 6 5 2 4 6 4 2 3 4 5 4 3 3 3 3 3 4 5 7 9 9 8 11 14 13 14 12 10 11 11 10 10 9 8 8 7 6 7 6
6 8 6 7 7 5 3 5 4 5 4 3 3 3 5 4 2 3 3 3 3 4 5 6 7 7 7 10 13 14 12 10 12 12 11 10 10 8 9 9 9 6 6 6
3 1 4 2 3 2 0 2 3 4 4 3 4 4 4 4 3 3 3 3 2 3 4 5 6 7 6 7 9 10 9 12 13 12 11 10 10 9 8 8 8 8 8 7
3 2 3 1 2 2 4 1 2 3 4 5 4 4 4 5 3 3 3 2 2 3 3 4 6 7 7 7 7 7 9 12 12 11 10 10 9 10 9 8 8 9 9 10
2 3 5 4 5 4 3 2 2 5 4 4 4 4 4 4 3 3 2 2 2 2 2 3 4 4 5 6 6 7 9 12 12 10 9 8 8 8 7 7 5 7 7 10
Wind_Direction
67 81 187 217 204 188 167 164 176 180 184 148 161 168 175 174 167 164 164 161 161 162 163 152 147 144 137 130 125 125 122 123 116 104 99 92 77 52 41 49 55 56 56 59
56 226 227 218 220 179 174 163 165 134 159 144 150 178 191 186 186 179 174 175 176 171 157 154 148 149 146 143 138 133 133 131 125 124 123 125 123 89 55 42 47 53 57 58
170 224 215 179 183 175 181 175 172 150 109 94 121 158 229 221 200 190 190 184 180 176 168 164 154 152 147 151 153 147 144 133 125 118 102 86 65 49 38 37 30 36 55 59
209 232 193 156 192 170 183 175 145 140 126 155 149 185 242 216 209 202 199 190 186 178 171 164 158 155 158 160 152 147 143 132 127 122 119 122 120 118 139 103 46 32 48 57
267 212 166 181 204 154 162 139 122 129 124 100 158 165 250 206 212 214 201 192 186 177 171 168 165 162 159 153 147 146 138 134 132 126 130 126 122 130 117 85 65 43 34 48
246 246 168 181 144 124 114 81 65 56 77 197 215 187 245 209 208 202 199 193 183 176 171 166 164 153 150 145 142 142 140 139 136 130 132 134 134 130 118 107 92 56 33 30
330 332 281 132 98 67 95 99 75 33 12 243 219 202 242 223 206 198 193 188 181 175 169 164 161 159 157 154 152 151 149 149 146 134 137 143 142 140 143 146 136 119 74 50
149 278 239 185 156 156 148 136 152 175 208 270 252 231 254 238 203 190 184 178 174 174 172 171 170 169 167 164 159 156 157 157 154 146 147 147 143 140 143 148 145 145 147 147
179 233 259 181 141 137 134 152 166 135 173 241 272 280 305 242 170 175 176 172 174 176 176 174 173 173 172 170 169 166 162 160 160 156 150 148 148 143 143 142 134 137 142 131
158 183 275 167 86 67 138 141 106 117 153 245 276 256 235 218 189 184 183 183 182 179 178 177 177 178 178 176 170 165 164 167 166 162 161 159 155 150 145 131 129 132 135 112
139 144 281 99 182 175 137 128 128 136 169 180 250 267 225 206 195 189 192 190 184 182 182 180 181 180 176 170 165 167 169 166 166 165 163 157 154 147 138 135 138 134 125 120
147 125 177 243 250 187 173 176 157 159 206 194 215 269 258 206 198 191 191 190 185 183 182 179 176 171 172 174 173 173 173 171 172 166 160 160 155 144 139 139 137 131 127 123
141 122 102 351 336 236 214 199 176 155 150 185 205 267 299 199 195 191 185 183 183 179 176 173 172 174 177 178 177 175 175 174 169 160 157 156 156 153 152 149 142 133 130 124
129 130 163 192 211 196 216 218 193 168 183 215 226 254 288 269 204 195 186 179 177 178 177 176 179 181 181 179 178 176 176 171 166 161 160 162 167 165 161 153 145 141 136 129
125 158 199 218 223 204 221 223 210 200 201 203 233 237 247 234 209 198 187 175 171 176 180 181 184 186 183 179 178 177 176 172 167 164 166 174 169 158 152 148 145 139 135 136
131 162 186 266 241 232 247 239 226 222 218 221 241 256 245 219 195 186 180 176 179 185 189 188 188 186 186 185 182 179 178 176 168 171 175 169 159 155 155 153 145 136 131 131
155 146 137 270 291 89 264 235 217 219 216 199 220 235 237 209 196 196 190 185 190 191 191 191 192 192 192 190 184 182 180 172 171 174 172 168 165 162 162 157 146 144 144 138
151 140 142 209 13 243 250 246 213 213 235 215 218 228 207 205 205 204 192 189 197 196 192 193 192 192 191 184 178 174 168 170 173 173 173 172 166 164 160 156 157 155 149 147
155 141 135 141 209 283 298 290 202 175 273 244 204 221 210 174 95 329 231 201 200 194 192 193 191 186 181 179 174 167 170 172 173 177 178 175 169 165 163 167 169 162 152 152
114 118 131 140 166 237 260 269 246 115 325 290 189 186 186 128 141 246 245 208 204 191 186 184 176 167 174 178 168 168 174 176 185 185 181 175 171 170 173 174 169 161 156 160
124 113 152 166 199 255 255 270 88 126 227 262 182 169 159 166 197 219 205 189 188 175 174 169 164 173 181 172 166 173 178 190 191 177 168 168 171 173 172 166 161 156 154 152
173 172 187 164 186 250 255 144 164 202 213 197 143 134 134 161 184 168 147 154 155 155 154 161 166 176 174 168 170 178 190 190 168 161 165 169 170 173 168 160 161 160 157 159
184 187 182 183 208 235 207 185 203 159 148 159 133 130 127 125 137 145 143 146 144 150 153 158 165 167 167 173 176 185 191 167 160 164 170 172 171 172 165 167 169 165 168 174
276 151 128 163 275 272 278 101 109 129 133 138 133 126 109 115 120 126 132 137 135 138 148 152 153 161 176 181 184 189 172 162 164 171 174 172 173 174 173 176 178 179 185 189
236 130 121 165 265 0 1 11 129 108 104 97 91 92 104 113 111 129 137 158 164 158 155 151 164 177 187 183 183 173 163 161 165 171 174 176 179 180 184 188 193 194 201 197
223 159 153 207 224 180 223 254 122 104 104 109 97 71 66 98 116 113 126 152 154 155 149 151 163 174 183 175 175 171 166 166 167 172 178 182 182 183 185 188 203 222 213 213
Height
1523 1529 1533 1530 1528 1529 1532 1536 1538 1536 1533 1536 1538 1539 1538 1539 1541 1542 1544 1546 1548 1550 1552 1554 1556 1558 1559 1560 1562 1563 1564 1564 1565 1565 1565 1564 1564 1563 1563 1562 1561 1560 1559 1558
1528 1531 1526 1525 1525 1527 1530 1536 1538 1536 1533 1535 1539 1540 1538 1538 1539 1541 1543 1545 1547 1549 1551 1553 1556 1557 1559 1560 1562 1563 1564 1565 1565 1565 1565 1565 1565 1565 1564 1563 1563 1562 1561 1560
1529 1527 1523 1524 1527 1530 1532 1535 1536 1537 1535 1535 1540 1545 1541 1539 1539 1540 1542 1543 1545 1547 1550 1552 1554 1557 1559 1560 1561 1563 1564 1565 1566 1566 1566 1566 1566 1566 1565 1565 1564 1564 1563 1562
1526 1523 1523 1525 1527 1527 1535 1529 1530 1533 1541 1547 1544 1556 1545 1539 1539 1539 1540 1541 1543 1546 1548 1551 1553 1555 1558 1560 1561 1563 1564 1565 1566 1566 1567 1567 1567 1566 1566 1566 1566 1565 1564 1563
1526 1522 1523 1526 1525 1524 1529 1527 1530 1534 1541 1547 1546 1553 1548 1538 1539 1536 1536 1537 1540 1543 1546 1549 1551 1554 1557 1559 1561 1562 1564 1565 1566 1567 1567 1567 1567 1567 1567 1567 1567 1567 1566 1565
1522 1520 1521 1523 1522 1523 1525 1531 1535 1540 1545 1556 1547 1551 1548 1537 1531 1530 1531 1533 1536 1540 1544 1547 1550 1553 1555 1558 1560 1562 1564 1565 1566 1567 1567 1567 1568 1568 1568 1568 1568 1568 1567 1567
1526 1523 1521 1521 1525 1526 1529 1542 1555 1558 1561 1557 1543 1545 1539 1522 1520 1522 1525 1529 1533 1537 1541 1545 1548 1551 1554 1556 1559 1561 1563 1564 1566 1566 1567 1568 1568 1569 1569 1569 1569 1568 1568 1568
1534 1536 1523 1521 1524 1529 1532 1539 1555 1563 1562 1555 1544 1543 1528 1514 1514 1517 1521 1525 1530 1534 1538 1541 1545 1548 1552 1554 1557 1559 1562 1563 1565 1566 1567 1568 1569 1569 1569 1569 1569 1569 1569 1569
1533 1533 1521 1519 1520 1524 1532 1538 1539 1548 1551 1555 1548 1535 1521 1513 1514 1516 1520 1524 1527 1531 1535 1539 1542 1546 1550 1553 1555 1558 1560 1562 1564 1565 1567 1568 1569 1569 1570 1570 1570 1570 1570 1570
1522 1530 1523 1520 1521 1524 1526 1531 1542 1549 1557 1560 1548 1539 1532 1519 1516 1516 1518 1521 1524 1529 1532 1536 1540 1544 1547 1551 1554 1557 1559 1561 1563 1564 1566 1567 1568 1569 1570 1570 1570 1570 1570 1570
1518 1528 1528 1524 1526 1528 1530 1533 1538 1546 1548 1556 1554 1541 1513 1511 1510 1512 1514 1517 1521 1525 1529 1533 1537 1541 1545 1548 1552 1554 1557 1559 1561 1563 1565 1566 1568 1569 1569 1570 1570 1571 1571 1571
1517 1527 1533 1528 1521 1520 1523 1527 1534 1546 1547 1546 1549 1538 1504 1505 1505 1507 1511 1514 1518 1522 1526 1530 1534 1538 1542 1546 1549 1552 1554 1557 1559 1562 1563 1565 1567 1568 1569 1570 1570 1570 1571 1571
1514 1526 1537 1537 1532 1525 1523 1522 1525 1532 1540 1544 1546 1533 1504 1504 1505 1506 1508 1512 1516 1519 1524 1528 1532 1535 1539 1542 1546 1549 1552 1555 1557 1560 1562 1564 1565 1567 1568 1569 1570 1570 1570 1571
1509 1522 1530 1536 1530 1523 1523 1520 1521 1528 1538 1538 1533 1523 1509 1505 1505 1505 1507 1510 1514 1517 1521 1524 1528 1532 1535 1539 1543 1546 1549 1552 1555 1558 1560 1562 1564 1565 1567 1568 1569 1569 1570 1570
1508 1519 1518 1517 1514 1514 1516 1515 1516 1521 1523 1528 1522 1516 1508 1503 1503 1503 1505 1508 1512 1515 1518 1521 1524 1528 1532 1535 1539 1543 1546 1549 1552 1555 1557 1560 1562 1564 1565 1567 1567 1568 1569 1570
1507 1514 1515 1516 1512 1512 1513 1511 1511 1512 1513 1515 1513 1510 1500 1500 1501 1502 1504 1506 1509 1511 1514 1518 1521 1525 1528 1531 1535 1539 1543 1546 1549 1552 1555 1558 1560 1562 1564 1565 1566 1567 1568 1568
1507 1513 1519 1523 1514 1513 1518 1507 1506 1506 1504 1506 1510 1504 1498 1499 1499 1500 1501 1503 1505 1508 1511 1514 1517 1520 1524 1528 1531 1535 1539 1543 1546 1549 1552 1555 1557 1560 1561 1563 1564 1565 1566 1567
1505 1512 1520 1523 1520 1526 1511 1496 1496 1498 1498 1497 1496 1495 1495 1495 1496 1497 1498 1499 1502 1504 1507 1510 1513 1517 1521 1525 1529 1533 1537 1540 1543 1546 1549 1552 1554 1557 1559 1561 1562 1563 1564 1565
1497 1507 1519 1525 1526 1519 1504 1495 1494 1498 1499 1493 1493 1493 1493 1494 1496 1497 1497 1498 1499 1501 1504 1507 1510 1513 1518 1522 1526 1530 1533 1536 1539 1542 1545 1548 1551 1553 1556 1557 1559 1560 1562 1563
1498 1503 1514 1522 1523 1524 1506 1492 1490 1494 1502 1492 1491 1491 1492 1493 1501 1499 1496 1497 1498 1500 1502 1505 1508 1511 1515 1518 1522 1526 1529 1532 1535 1538 1541 1545 1548 1550 1552 1554 1556 1558 1559 1560
1505 1509 1514 1518 1521 1513 1495 1490 1491 1507 1504 1492 1490 1490 1491 1492 1494 1495 1495 1496 1497 1498 1500 1503 1505 1508 1511 1515 1519 1522 1525 1527 1531 1535 1539 1542 1544 1547 1549 1551 1553 1555 1556 1557
1502 1508 1512 1515 1519 1513 1489 1489 1494 1495 1490 1490 1489 1489 1490 1491 1492 1493 1493 1494 1495 1497 1499 1501 1503 1506 1509 1512 1515 1518 1521 1524 1529 1532 1535 1538 1541 1544 1546 1548 1550 1552 1553 1554
1494 1494 1497 1501 1502 1490 1486 1487 1487 1488 1489 1489 1489 1490 1490 1490 1491 1492 1493 1494 1495 1496 1498 1500 1502 1504 1507 1509 1512 1515 1518 1522 1525 1529 1532 1535 1538 1540 1542 1544 1546 1548 1549 1550
1489 1486 1490 1494 1492 1487 1486 1486 1487 1487 1488 1488 1489 1489 1489 1490 1490 1491 1492 1493 1494 1495 1496 1498 1500 1503 1505 1507 1509 1512 1515 1519 1522 1525 1528 1531 1533 1536 1538 1540 1542 1543 1544 1546
1486 1486 1489 1492 1489 1487 1486 1486 1487 1487 1487 1488 1488 1489 1489 1489 1490 1491 1492 1493 1493 1494 1496 1497 1498 1500 1502 1505 1507 1510 1512 1515 1518 1521 1524 1527 1529 1531 1534 1535 1537 1539 1540 1542
1484 1485 1488 1491 1486 1487 1487 1487 1487 1486 1487 1488 1488 1488 1489 1489 1490 1490 1491 1492 1493 1494 1495 1496 1497 1499 1501 1503 1505 1507 1509 1512 1515 1517 1519 1522 1524 1527 1529 1531 1533 1535 1537 1538